Regional Weather Roundup
Issued by NWS

Home | Current Version | Previous Version | Text Only | Print | Product List | Glossary Off
Versions: 1 2 3 4 5 6 7 8 9 10 11 12 13 14 15 16 17 18 19 20 21 22 23 24 25 26 27 28 29 30 31 32 33 34 35 36 37 38 39 40 41 42 43 44 45 46 47 48 49 50

000
ASUS43 KMKX 300111
RWRWI

WISCONSIN REGIONAL WEATHER ROUNDUP
NATIONAL WEATHER SERVICE MILWAUKEE/SULLIVAN WI
800 PM CDT WED MAR 29 2017

NOTE: "FAIR" INDICATES FEW OR NO CLOUDS BELOW 12,000 FEET WITH NO
SIGNIFICANT WEATHER AND/OR OBSTRUCTIONS TO VISIBILITY.

WIZ001-002-006>008-014>016-023>028-300200-
NORTHWEST WISCONSIN

CITY           SKY/WX    TMP DP  RH WIND       PRES   REMARKS
SUPERIOR ARPT  CLOUDY    33  31  92 E13       30.24S WCI  24
ASHLAND        CLOUDY    34  29  82 N6        30.22S WCI  29
HAYWARD        MOCLDY    45  32  60 NE5       30.17S
SIREN          CLOUDY    47  32  56 CALM      30.17F
CUMBERLAND     CLOUDY    43  32  65 E3        30.17F
RICE LAKE      CLOUDY    45  34  64 CALM      30.19F
CHETEK         CLOUDY    45  34  66 E9        30.18F
LADYSMITH      CLOUDY    46  32  58 CALM      30.20S
EAU CLAIRE     LGT RAIN  43  38  82 SE7       30.18S
MENOMONIE      DRIZZLE   43  38  83 SE9       30.18S
NEW RICHMOND   CLOUDY    44  33  65 E3        30.16F
OSCEOLA        CLOUDY    46  34  62 E5        30.19F
$$

WIZ003>005-009-010-017-018-300200-
NORTH CENTRAL WISCONSIN

CITY           SKY/WX    TMP DP  RH WIND       PRES   REMARKS
MANITOWISH WTR CLOUDY    40  29  65 CALM      30.18F
ARBOR VITAE    CLOUDY    43  29  58 SE3       30.19S
WOODRUFF       CLOUDY    43  29  58 SE3       30.19S
RHINELANDER    CLOUDY    41  29  62 E6        30.20S
EAGLE RIVER    CLOUDY    40  26  56 E3        30.20S
LAND O LAKES   CLOUDY    40  28  60 SE3       30.21F
PHILLIPS       CLOUDY    43  31  62 CALM      30.18S
TOMAHAWK       CLOUDY    40  30  67 CALM      30.20S
MEDFORD        CLOUDY    41  29  63 SE6       30.19S
MERRILL        CLOUDY    42  31  65 CALM      30.21S
$$

WIZ029-030-035-036-043>047-300200-
CENTRAL WISCONSIN

CITY           SKY/WX    TMP DP  RH WIND       PRES   REMARKS
WAUSAU         CLOUDY    41  28  60 SE9       30.20R
MOSINEE        CLOUDY    39  30  70 SE5       30.22R
MARSHFIELD     LGT RAIN  39  34  82 SE5       30.19R
STEVENS POINT  RAIN      36  32  85 SE6       30.22R WCI  31
WAUPACA        CLOUDY    42  28  58 NE6       30.23R
WAUTOMA        CLOUDY    41  31  67 E10       30.21S
WISC RAPIDS    LGT RAIN  39  37  92 E7        30.22R WCI  34
CAMP DOUGLAS   DRIZZLE   43  34  70 NE9       30.17S
$$

WIZ011>013-019>022-031-037>040-048>050-300200-
NORTHEAST WISCONSIN

CITY           SKY/WX    TMP DP  RH WIND       PRES   REMARKS
ANTIGO         CLOUDY    37  29  72 SE7       30.21S WCI  32
SHAWANO        CLOUDY    40  32  72 NE6       30.23F
OCONTO         CLOUDY    37  25  61 NE5       30.24F WCI  34
STURGEON BAY   CLOUDY    37  28  70 NE8       30.25R WCI  31
GREEN BAY      CLOUDY    38  31  76 NE9       30.23F WCI  31
MANITOWOC      CLOUDY    37  32  82 N7        30.22F WCI  32
APPLETON       CLOUDY    39  27  60 NE9       30.20F WCI  33
CLINTONVILLE   CLOUDY    39  28  65 E5        30.23S
OSHKOSH        CLOUDY    39  27  62 NE13      30.21S WCI  31
$$

WIZ032>034-041-042-053>061-300200-
SOUTHWEST WISCONSIN

CITY           SKY/WX    TMP DP  RH WIND       PRES   REMARKS
LA CROSSE      LGT RAIN  44  40  85 E12       30.15F FOG
SPARTA         RAIN      41  38  91 NE9       30.18S
VIROQUA        CLOUDY    41  39  93 E16G22    30.12F
BOSCOBEL       LGT RAIN  42  38  85 E7        30.15R
PRAIRIE DU CHI LGT RAIN  39  38  97 NE12G21   30.11R WCI  32
PLATTEVILLE    CLOUDY    39  38  96 NE23G32   30.05F WCI  29
$$

WIZ056-057-062-063-064-067-068-300200-
SOUTH CENTRAL WISCONSIN

CITY           SKY/WX    TMP DP  RH WIND       PRES   REMARKS
REEDSBURG      CLOUDY    42  35  75 NE10G21   30.13F
BARABOO/DELLS  CLOUDY    41  31  67 NE10      30.14F
LONE ROCK      LGT RAIN  43  36  76 E20       30.12F
MINERAL POINT  LGT RAIN  37  37 100 E18G30    30.09R WCI  27
MADISON        RAIN      42  36  79 E17       30.14F
MIDDLETON      CLOUDY    42  38  83 E14G24    30.13F
WATERTOWN      LGT RAIN  40  33  74 NE7       30.16F
MONROE         LGT RAIN  39  37  93 NE18G25   30.09S WCI  30
JANESVILLE     LGT RAIN  43  39  87 NE12G23   30.12F
$$

WIZ051-052-058>065-066-070>072-300200-
SOUTHEAST WISCONSIN

CITY           SKY/WX    TMP DP  RH WIND       PRES   REMARKS
MILWAUKEE      LGT RAIN  39  34  82 NE15      30.18R WCI  31
WAUKESHA       LGT RAIN  36  30  80 N10       30.18F WCI  28
MILWAUKEE/TIMM CLOUDY    39  30  70 NE6       30.21R WCI  35
RACINE         LGT RAIN  38  34  85 N15G24    30.18R WCI  29
KENOSHA        LGT RAIN  39  35  86 N18       30.13S WCI  30
FOND DU LAC    CLOUDY    40  28  62 NE9       30.21S WCI  34
SHEBOYGAN      CLOUDY    38  30  73 N8        30.21R WCI  32
WEST BEND      CLOUDY    37  32  81 E9        30.19S WCI  31
JUNEAU         CLOUDY    40  30  67 E7        30.19S
$$

LSZ147-162-300200-
LAKE SUPERIOR

STATION/POSITION TIME  TEMP    WIND        PRES    WAVE
                       AIR SEA DIR/SP/G            HT/PER
                 (UTC) (F)     (DEG/KT/KT) (MB)    (FT/S)
DEVILS ISLAND    0100   34      60/ 17/ 21 1024.3F
PORT WING        0040   35      40/ 17/ 20 1023.7S
SAXON HARBOR     0040   36     200/  4/  5 1022.7F
$$

LMZ867-665-643>646-300200-
LAKE MICHIGAN

STATION/POSITION TIME  TEMP    WIND        PRES    WAVE
                       AIR SEA DIR/SP/G            HT/PER
                 (UTC) (F)     (DEG/KT/KT) (MB)    (FT/S)
CHAMBERS ISLAND  0040   36      40/ 10/ 12 1024.0S
NORTHPORT PIER   0040   36      60/  9/ 13 1024.4F
KEWAUNEE LAKESHO 0042   36      30/  6/  9 1023.5R
SHEBOYGAN LAKESH 0100   36      10/ 16/ 17 1023.6R
PORT WASHINGTON  0030   40      10/  7/ 12 1023.0R
MILWAUKEE LAKESH 0050   38      10/ 20/ 23   N/A
KENOSHA   LAKESH 0100   39      20/ 24/ 28 1020.0
$$

TC  - TEMPERATURE IN CELSIUS
VSB - VISIBILITY IN STATUTE MILES
WCI - WIND CHILL INDEX
HX  - HEAT INDEX





USA.gov is the U.S. government's official web portal to all federal, state and local government web resources and services.